Flight Information

DEPARTURE
LA VERNE, CA
Elevation:
1013
Runways:
8L/26R - 3661x75 - ASPH-G
8R/26L - 4840x75 - ASPH-G
Active PE Departure:
26L - 26R
Current PE ATIS:
C
Altimeter:
Remarks:
ATIS:
124.4 909-596-1523
Clearance Delivery:
121.875
Ground:
125
Tower:
118.2
DESTINATION
,
Elevation:
TPA:
1000 (est.)


6762.1 NM74° True-14° Var59° HDG

Flight Plan:
(click to file on line)

1. Type
2. Aircraft Identification
3. Aircraft Type / Special Equipment
4. True Airspeed
kts
5. Departure Airport
(ICAO code)
6. Arriving Airport
(ICAO code)
7. Cruising Altitude
ft
8. Alternate Airport
(ICAO code)
9. Route of Flight
10. Remarks


00:00:00 Departure ATIS: Destination ATIS:

Clearance Limit:
Route:
Altitude: Expect in minutes
Frequency:
Transponder: (7500 Hijack / 7600 Lost Comms / 7700 Emergency)


KPOC 190247Z 28006KT 10SM CLR 20/04 A2976
Time: 2021-01-19T02:47:00Z
1611024856
Winds: 280 @ 6 kts
Visibility: 10.0 sm
Clouds (AGL): CLR
Temperature: 20.0 C
Dew Point: 4.0 C
Pressure: 29.760826 in Hgbr


Notes:

Data extracted from FAA Digital Chart Supplement. Effective: 0901Z Thursday, Dec 31, 2020 to 0901Z Thursday, Jan 28, 2021
Current ATIS data is provided courtisy of PilotEdge.